CES9029 ZSPD-ZBSJ

Flight info

Callsign CES9029
Flight time 1h 33m
Altitude 38100
Route POMOK G330 PIMOL A593 DALIM DCT LOVTI W623 LIKTI
Aircraft B77W/H-SDE1E2E3FGHIJ2J3J4J5M1RWXY/LB1D1

Departure

Time 2026-05-07 06:01
Airport Shanghai Pudong International Airport (ZSPD)

Arrival

Time 2026-05-07 07:34
Airport Shijiazhuang Zhengding International Airport (ZBSJ)
Time Latitude Longitude Altitude Speed Heading
2026-05-07 05:30 31.14673 121.79819 28 ft 0 kts 72°
2026-05-07 05:34 31.14673 121.79818 28 ft 0 kts 72°
2026-05-07 05:50 31.14670 121.79806 28 ft 2 kts 74°
2026-05-07 05:51 31.14665 121.79788 27 ft 2 kts 76°
2026-05-07 05:51 31.14662 121.79769 27 ft 2 kts 79°
2026-05-07 05:51 31.14659 121.79751 25 ft 2 kts 84°
2026-05-07 05:51 31.14658 121.79732 25 ft 2 kts 94°
2026-05-07 05:52 31.14661 121.79714 25 ft 2 kts 121°
2026-05-07 05:52 31.14672 121.79701 25 ft 1 kts 156°
2026-05-07 05:52 31.14674 121.79700 26 ft 0 kts 156°
2026-05-07 05:54 31.14656 121.79708 28 ft 12 kts 161°
2026-05-07 05:54 31.14570 121.79741 28 ft 13 kts 161°
2026-05-07 05:54 31.14481 121.79771 28 ft 13 kts 175°
2026-05-07 05:54 31.14416 121.79700 28 ft 14 kts 248°
2026-05-07 05:55 31.14385 121.79594 28 ft 14 kts 250°
2026-05-07 05:55 31.14326 121.79516 28 ft 14 kts 192°
2026-05-07 05:55 31.14230 121.79532 27 ft 14 kts 163°
2026-05-07 05:55 31.14138 121.79567 28 ft 14 kts 162°
2026-05-07 05:56 31.14047 121.79605 28 ft 14 kts 159°
2026-05-07 05:56 31.13954 121.79638 28 ft 14 kts 166°
2026-05-07 05:56 31.13861 121.79670 28 ft 14 kts 162°
2026-05-07 05:56 31.13768 121.79707 27 ft 14 kts 159°
2026-05-07 05:57 31.13676 121.79741 28 ft 14 kts 163°
2026-05-07 05:57 31.13583 121.79774 27 ft 14 kts 161°
2026-05-07 05:57 31.13492 121.79814 27 ft 14 kts 160°
2026-05-07 05:57 31.13399 121.79847 27 ft 14 kts 163°
2026-05-07 05:58 31.13306 121.79882 27 ft 14 kts 162°
2026-05-07 05:58 31.13214 121.79916 27 ft 14 kts 162°
2026-05-07 05:58 31.13121 121.79951 27 ft 14 kts 162°
2026-05-07 05:58 31.13029 121.79985 27 ft 14 kts 162°
2026-05-07 05:59 31.12936 121.80019 27 ft 14 kts 160°
2026-05-07 05:59 31.12847 121.80062 28 ft 14 kts 164°
2026-05-07 05:59 31.12757 121.80034 28 ft 14 kts 218°
2026-05-07 05:59 31.12729 121.79926 28 ft 14 kts 276°
2026-05-07 06:00 31.12803 121.79853 27 ft 15 kts 336°
2026-05-07 06:00 31.12839 121.79836 27 ft 0 kts 340°
2026-05-07 06:00 31.12865 121.79827 27 ft 20 kts 342°
2026-05-07 06:00 31.13356 121.79644 26 ft 128 kts 342°
2026-05-07 06:01 31.14490 121.79196 116 ft 205 kts 339°
2026-05-07 06:01 31.15899 121.78652 1025 ft 207 kts 340°
2026-05-07 06:01 31.17250 121.78098 2239 ft 207 kts 339°
2026-05-07 06:01 31.18688 121.77500 2762 ft 235 kts 340°
2026-05-07 06:02 31.20324 121.76819 3312 ft 256 kts 340°
2026-05-07 06:02 31.22078 121.76341 4188 ft 262 kts 346°
2026-05-07 06:02 31.23791 121.75617 5106 ft 263 kts 335°
2026-05-07 06:02 31.25504 121.74824 6178 ft 265 kts 339°
2026-05-07 06:03 31.27266 121.74132 7157 ft 270 kts 340°
2026-05-07 06:03 31.29058 121.73439 8046 ft 277 kts 339°
2026-05-07 06:03 31.30931 121.72703 8991 ft 281 kts 336°
2026-05-07 06:03 31.32567 121.71530 9737 ft 283 kts 310°
2026-05-07 06:04 31.33599 121.69554 10527 ft 287 kts 288°
2026-05-07 06:04 31.34119 121.67237 10846 ft 313 kts 274°
2026-05-07 06:04 31.33943 121.64602 11067 ft 341 kts 259°
2026-05-07 06:04 31.33406 121.61815 11680 ft 357 kts 257°
2026-05-07 06:05 31.32849 121.58957 12673 ft 363 kts 258°
2026-05-07 06:05 31.32321 121.56044 13744 ft 367 kts 258°
2026-05-07 06:05 31.31812 121.53103 14693 ft 371 kts 259°
2026-05-07 06:05 31.31309 121.50118 15687 ft 374 kts 259°
2026-05-07 06:06 31.30817 121.47150 16608 ft 379 kts 259°
2026-05-07 06:06 31.30312 121.44094 17487 ft 385 kts 259°
2026-05-07 06:06 31.29800 121.40995 18342 ft 390 kts 259°
2026-05-07 06:06 31.29296 121.37863 19072 ft 390 kts 262°
2026-05-07 06:07 31.29329 121.34671 19613 ft 401 kts 280°
2026-05-07 06:07 31.30203 121.31553 20368 ft 407 kts 292°
2026-05-07 06:07 31.31708 121.28725 21194 ft 414 kts 306°
2026-05-07 06:07 31.33640 121.26210 21968 ft 418 kts 309°
2026-05-07 06:08 31.35621 121.23746 22634 ft 424 kts 310°
2026-05-07 06:08 31.37651 121.21206 23321 ft 429 kts 309°
2026-05-07 06:08 31.39676 121.18618 23923 ft 432 kts 309°
2026-05-07 06:08 31.41688 121.16006 24644 ft 432 kts 309°
2026-05-07 06:09 31.43701 121.13382 25245 ft 433 kts 310°
2026-05-07 06:09 31.46001 121.11029 25668 ft 448 kts 324°
2026-05-07 06:09 31.48834 121.09426 26101 ft 455 kts 333°
2026-05-07 06:09 31.51776 121.07967 26552 ft 461 kts 332°
2026-05-07 06:10 31.54724 121.06466 27110 ft 464 kts 332°
2026-05-07 06:10 31.57633 121.04953 27679 ft 466 kts 331°
2026-05-07 06:10 31.60600 121.03388 28208 ft 469 kts 331°
2026-05-07 06:10 31.63588 121.01799 28688 ft 473 kts 331°
2026-05-07 06:11 31.66601 121.00191 29167 ft 477 kts 331°
2026-05-07 06:11 31.69602 120.98588 29619 ft 481 kts 330°
2026-05-07 06:11 31.72671 120.96948 30041 ft 484 kts 330°
2026-05-07 06:11 31.75731 120.95314 30449 ft 485 kts 330°
2026-05-07 06:12 31.78817 120.93666 30924 ft 485 kts 330°
2026-05-07 06:12 31.81889 120.92025 31510 ft 482 kts 330°
2026-05-07 06:12 31.84932 120.90399 32120 ft 478 kts 330°
2026-05-07 06:12 31.87935 120.88792 32689 ft 476 kts 330°
2026-05-07 06:13 31.90926 120.87188 33214 ft 475 kts 330°
2026-05-07 06:13 31.93960 120.85561 33751 ft 473 kts 330°
2026-05-07 06:13 31.96947 120.83958 34224 ft 472 kts 329°
2026-05-07 06:13 31.99910 120.82367 34608 ft 471 kts 329°
2026-05-07 06:14 32.02878 120.80770 35048 ft 470 kts 329°
2026-05-07 06:14 32.05852 120.79169 35524 ft 467 kts 329°
2026-05-07 06:14 32.08806 120.77578 35979 ft 465 kts 329°
2026-05-07 06:14 32.11738 120.75996 36416 ft 463 kts 329°
2026-05-07 06:15 32.14666 120.74416 36841 ft 461 kts 328°
2026-05-07 06:15 32.17591 120.72838 37237 ft 460 kts 328°
2026-05-07 06:15 32.20495 120.71271 37629 ft 458 kts 328°
2026-05-07 06:15 32.23356 120.69729 38009 ft 457 kts 328°
2026-05-07 06:16 32.26269 120.68156 38026 ft 461 kts 328°
2026-05-07 06:16 32.32072 120.65021 38018 ft 456 kts 328°
2026-05-07 06:17 32.37821 120.61926 38019 ft 452 kts 328°
2026-05-07 06:17 32.43548 120.58843 38024 ft 452 kts 328°
2026-05-07 06:18 32.49276 120.55759 38033 ft 452 kts 328°
2026-05-07 06:18 32.55001 120.52672 38037 ft 453 kts 328°
2026-05-07 06:19 32.60748 120.49569 38048 ft 454 kts 328°
2026-05-07 06:19 32.66509 120.46453 38046 ft 455 kts 328°
2026-05-07 06:20 32.72241 120.43348 38056 ft 456 kts 328°
2026-05-07 06:20 32.78023 120.40212 38056 ft 456 kts 328°
2026-05-07 06:21 32.83821 120.37063 38074 ft 458 kts 328°
2026-05-07 06:21 32.89618 120.33910 38078 ft 458 kts 328°
2026-05-07 06:22 32.95388 120.30769 38080 ft 458 kts 328°
2026-05-07 06:22 33.03135 120.26547 38091 ft 458 kts 328°
2026-05-07 06:23 33.09903 120.22856 38088 ft 459 kts 328°
2026-05-07 06:23 33.14718 120.20228 38087 ft 458 kts 328°
2026-05-07 06:24 33.20796 120.17866 38112 ft 467 kts 343°
2026-05-07 06:24 33.23860 120.16816 38091 ft 451 kts 324°
2026-05-07 06:24 33.26316 120.14641 38090 ft 436 kts 305°
2026-05-07 06:25 33.27887 120.11612 38109 ft 425 kts 285°
2026-05-07 06:25 33.28702 120.08241 38111 ft 422 kts 285°
2026-05-07 06:25 33.31301 120.01812 38104 ft 437 kts 296°
2026-05-07 06:26 33.34467 119.95629 38095 ft 432 kts 297°
2026-05-07 06:26 33.37558 119.89589 38104 ft 427 kts 296°
2026-05-07 06:27 33.40583 119.83490 38118 ft 426 kts 295°
2026-05-07 06:27 33.43568 119.77369 38123 ft 425 kts 295°
2026-05-07 06:28 33.46538 119.71249 38115 ft 424 kts 295°
2026-05-07 06:28 33.49503 119.65132 38118 ft 424 kts 295°
2026-05-07 06:29 33.52464 119.59015 38125 ft 424 kts 295°
2026-05-07 06:29 33.55427 119.52886 38129 ft 425 kts 295°
2026-05-07 06:30 33.58387 119.46752 38129 ft 425 kts 295°
2026-05-07 06:30 33.61331 119.40642 38135 ft 426 kts 295°
2026-05-07 06:31 33.64295 119.34479 38134 ft 426 kts 295°
2026-05-07 06:31 33.67259 119.28305 38136 ft 426 kts 295°
2026-05-07 06:32 33.70215 119.22139 38148 ft 426 kts 295°
2026-05-07 06:32 33.73168 119.15966 38138 ft 426 kts 295°
2026-05-07 06:33 33.76115 119.09798 38139 ft 425 kts 295°
2026-05-07 06:33 33.79036 119.03672 38144 ft 424 kts 295°
2026-05-07 06:34 33.81973 118.97502 38140 ft 424 kts 295°
2026-05-07 06:34 33.84899 118.91345 38146 ft 424 kts 295°
2026-05-07 06:35 33.87824 118.85178 38142 ft 423 kts 295°
2026-05-07 06:35 33.90727 118.79045 38148 ft 422 kts 295°
2026-05-07 06:36 33.93635 118.72897 38131 ft 420 kts 295°
2026-05-07 06:36 33.96501 118.66823 38127 ft 419 kts 295°
2026-05-07 06:37 33.99344 118.60789 38140 ft 416 kts 295°
2026-05-07 06:37 34.02207 118.54702 38131 ft 413 kts 295°
2026-05-07 06:38 34.05031 118.48686 38131 ft 411 kts 295°
2026-05-07 06:38 34.07834 118.42704 38130 ft 410 kts 295°
2026-05-07 06:39 34.10634 118.36718 38136 ft 410 kts 295°
2026-05-07 06:39 34.13438 118.30713 38131 ft 412 kts 295°
2026-05-07 06:40 34.16236 118.24712 38135 ft 414 kts 295°
2026-05-07 06:40 34.19064 118.18636 38131 ft 416 kts 295°
2026-05-07 06:41 34.21904 118.12525 38131 ft 417 kts 295°
2026-05-07 06:41 34.24747 118.06398 38144 ft 418 kts 295°
2026-05-07 06:42 34.26356 118.03467 38126 ft 423 kts 306°
2026-05-07 06:42 34.28525 118.01013 38140 ft 432 kts 315°
2026-05-07 06:42 34.33791 117.97451 38169 ft 447 kts 333°
2026-05-07 06:43 34.39792 117.95366 38138 ft 447 kts 335°
2026-05-07 06:43 34.45780 117.93357 38127 ft 445 kts 335°
2026-05-07 06:44 34.51726 117.91276 38133 ft 444 kts 334°
2026-05-07 06:44 34.57658 117.89154 38130 ft 445 kts 334°
2026-05-07 06:45 34.63595 117.87021 38126 ft 447 kts 334°
2026-05-07 06:45 34.69578 117.84875 38133 ft 448 kts 334°
2026-05-07 06:46 34.75508 117.82745 38135 ft 448 kts 334°
2026-05-07 06:46 34.81495 117.80591 38132 ft 448 kts 334°
2026-05-07 06:47 34.87492 117.78450 38147 ft 449 kts 333°
2026-05-07 06:47 34.93468 117.76277 38128 ft 447 kts 333°
2026-05-07 06:48 34.99425 117.74102 38129 ft 446 kts 333°
2026-05-07 06:48 35.05364 117.71935 38127 ft 445 kts 333°
2026-05-07 06:49 35.11290 117.69769 38155 ft 444 kts 333°
2026-05-07 06:49 35.17157 117.67616 38152 ft 442 kts 333°
2026-05-07 06:50 35.23039 117.65452 38145 ft 440 kts 333°
2026-05-07 06:50 35.28906 117.63291 38138 ft 440 kts 333°
2026-05-07 06:51 35.34772 117.61126 38211 ft 440 kts 332°
2026-05-07 06:51 35.40640 117.58956 38167 ft 440 kts 332°
2026-05-07 06:52 35.46465 117.56802 38150 ft 439 kts 332°
2026-05-07 06:52 35.52316 117.54634 38152 ft 439 kts 332°
2026-05-07 06:53 35.58157 117.52464 38165 ft 438 kts 332°
2026-05-07 06:53 35.63996 117.50296 38169 ft 438 kts 332°
2026-05-07 06:54 35.69807 117.48133 38166 ft 438 kts 332°
2026-05-07 06:54 35.75649 117.45955 38179 ft 438 kts 332°
2026-05-07 06:55 35.81484 117.43776 38184 ft 437 kts 332°
2026-05-07 06:55 35.87315 117.41593 38174 ft 438 kts 332°
2026-05-07 06:56 35.93150 117.39408 38179 ft 439 kts 332°
2026-05-07 06:56 35.98994 117.37217 38175 ft 439 kts 332°
2026-05-07 06:57 36.04846 117.35036 38190 ft 440 kts 332°
2026-05-07 06:57 36.10683 117.32890 38217 ft 438 kts 332°
2026-05-07 06:58 36.16525 117.30718 38192 ft 438 kts 332°
2026-05-07 06:58 36.22376 117.28541 38182 ft 438 kts 332°
2026-05-07 06:59 36.28220 117.26368 38187 ft 438 kts 332°
2026-05-07 06:59 36.34058 117.24193 38231 ft 438 kts 332°
2026-05-07 07:00 36.39705 117.21716 38177 ft 418 kts 323°
2026-05-07 07:00 36.44658 117.18173 38212 ft 409 kts 316°
2026-05-07 07:01 36.49040 117.13835 38184 ft 403 kts 311°
2026-05-07 07:01 36.53293 117.09339 38202 ft 400 kts 311°
2026-05-07 07:02 36.57525 117.04863 38192 ft 398 kts 311°
2026-05-07 07:02 36.61757 117.00403 38202 ft 398 kts 311°
2026-05-07 07:03 36.65982 116.95954 38211 ft 397 kts 311°
2026-05-07 07:03 36.70170 116.91541 38208 ft 397 kts 311°
2026-05-07 07:04 36.74384 116.87095 38211 ft 396 kts 311°
2026-05-07 07:04 36.78598 116.82641 38223 ft 396 kts 311°
2026-05-07 07:05 36.82804 116.78190 38220 ft 396 kts 311°
2026-05-07 07:05 36.87009 116.73734 38213 ft 396 kts 311°
2026-05-07 07:06 36.91215 116.69267 38229 ft 398 kts 311°
2026-05-07 07:06 36.95433 116.64784 38223 ft 398 kts 311°
2026-05-07 07:07 36.99646 116.60299 38223 ft 398 kts 311°
2026-05-07 07:07 37.03859 116.55807 38220 ft 398 kts 311°
2026-05-07 07:08 37.08072 116.51308 38225 ft 398 kts 311°
2026-05-07 07:08 37.12281 116.46806 38226 ft 397 kts 311°
2026-05-07 07:09 37.14406 116.44525 37201 ft 409 kts 311°
2026-05-07 07:09 37.16525 116.42253 36408 ft 407 kts 311°
2026-05-07 07:09 37.18686 116.39935 35590 ft 407 kts 310°
2026-05-07 07:09 37.20846 116.37619 34778 ft 407 kts 310°
2026-05-07 07:10 37.22991 116.35322 34119 ft 403 kts 310°
2026-05-07 07:10 37.25107 116.33054 33416 ft 398 kts 310°
2026-05-07 07:10 37.27204 116.30804 32774 ft 393 kts 309°
2026-05-07 07:10 37.29269 116.28584 32169 ft 389 kts 309°
2026-05-07 07:11 37.31291 116.26407 31592 ft 385 kts 309°
2026-05-07 07:11 37.33311 116.24228 31027 ft 381 kts 309°
2026-05-07 07:11 37.34646 116.22787 30658 ft 379 kts 309°
2026-05-07 07:11 37.37307 116.19913 29837 ft 376 kts 309°
2026-05-07 07:12 37.39279 116.17780 29215 ft 372 kts 309°
2026-05-07 07:12 37.41234 116.15665 28630 ft 369 kts 309°
2026-05-07 07:12 37.43173 116.13567 28060 ft 365 kts 309°
2026-05-07 07:12 37.45088 116.11493 27498 ft 362 kts 309°
2026-05-07 07:13 37.46349 116.10126 27187 ft 360 kts 309°
2026-05-07 07:13 37.48239 116.08076 26650 ft 357 kts 309°
2026-05-07 07:13 37.50117 116.06037 26099 ft 355 kts 310°
2026-05-07 07:13 37.51981 116.04012 25571 ft 353 kts 310°
2026-05-07 07:14 37.54434 116.01346 24879 ft 351 kts 310°
2026-05-07 07:14 37.55681 115.99989 24521 ft 350 kts 310°
2026-05-07 07:14 37.57523 115.97983 24013 ft 349 kts 311°
2026-05-07 07:14 37.59343 115.96001 23436 ft 348 kts 311°
2026-05-07 07:15 37.61172 115.94009 22871 ft 346 kts 312°
2026-05-07 07:15 37.63000 115.92016 22346 ft 344 kts 313°
2026-05-07 07:15 37.64796 115.90056 21847 ft 341 kts 313°
2026-05-07 07:15 37.66570 115.88120 21343 ft 339 kts 314°
2026-05-07 07:16 37.68364 115.86160 20862 ft 337 kts 314°
2026-05-07 07:16 37.70117 115.84245 20377 ft 335 kts 314°
2026-05-07 07:16 37.71815 115.82238 19889 ft 332 kts 310°
2026-05-07 07:16 37.73323 115.80060 19410 ft 329 kts 307°
2026-05-07 07:17 37.74758 115.77796 18917 ft 329 kts 307°
2026-05-07 07:17 37.76170 115.75558 18461 ft 329 kts 308°
2026-05-07 07:17 37.77596 115.73296 17893 ft 329 kts 308°
2026-05-07 07:17 37.79025 115.71034 17385 ft 329 kts 308°
2026-05-07 07:18 37.80450 115.68778 16877 ft 328 kts 309°
2026-05-07 07:18 37.81871 115.66530 16384 ft 327 kts 309°
2026-05-07 07:18 37.83291 115.64283 15895 ft 327 kts 309°
2026-05-07 07:18 37.84711 115.62036 15406 ft 326 kts 309°
2026-05-07 07:19 37.86128 115.59791 14922 ft 326 kts 309°
2026-05-07 07:19 37.87540 115.57554 14467 ft 326 kts 310°
2026-05-07 07:19 37.88941 115.55334 13979 ft 326 kts 310°
2026-05-07 07:19 37.90355 115.53090 13448 ft 326 kts 310°
2026-05-07 07:20 37.91786 115.50818 12941 ft 325 kts 310°
2026-05-07 07:20 37.93194 115.48584 12457 ft 324 kts 310°
2026-05-07 07:20 37.94581 115.46382 11987 ft 323 kts 310°
2026-05-07 07:20 37.95979 115.44162 11519 ft 322 kts 311°
2026-05-07 07:21 37.97516 115.42120 11064 ft 320 kts 319°
2026-05-07 07:21 37.99195 115.40298 10779 ft 313 kts 321°
2026-05-07 07:21 38.00848 115.38568 10643 ft 304 kts 321°
2026-05-07 07:21 38.02457 115.36862 10394 ft 298 kts 321°
2026-05-07 07:22 38.04013 115.35177 10245 ft 290 kts 320°
2026-05-07 07:22 38.05514 115.33533 10106 ft 281 kts 320°
2026-05-07 07:22 38.06974 115.31925 9939 ft 274 kts 320°
2026-05-07 07:22 38.08400 115.30349 9755 ft 268 kts 320°
2026-05-07 07:23 38.09808 115.28803 9495 ft 265 kts 320°
2026-05-07 07:23 38.11190 115.27298 9235 ft 260 kts 320°
2026-05-07 07:23 38.12577 115.25788 8596 ft 270 kts 320°
2026-05-07 07:23 38.13993 115.24245 8356 ft 265 kts 320°
2026-05-07 07:24 38.15374 115.22736 8155 ft 259 kts 320°
2026-05-07 07:24 38.16762 115.21219 7622 ft 266 kts 320°
2026-05-07 07:24 38.18072 115.19598 7230 ft 263 kts 306°
2026-05-07 07:24 38.18805 115.17470 6897 ft 263 kts 287°
2026-05-07 07:25 38.19741 115.12982 6223 ft 262 kts 287°
2026-05-07 07:25 38.20210 115.10753 5884 ft 260 kts 287°
2026-05-07 07:25 38.20673 115.08540 5582 ft 258 kts 287°
2026-05-07 07:26 38.21137 115.06352 5288 ft 254 kts 287°
2026-05-07 07:26 38.21584 115.04233 5038 ft 249 kts 287°
2026-05-07 07:26 38.22030 115.02121 4719 ft 247 kts 287°
2026-05-07 07:26 38.22481 114.99999 4414 ft 249 kts 287°
2026-05-07 07:27 38.22928 114.97871 4170 ft 248 kts 287°
2026-05-07 07:27 38.23377 114.95747 3918 ft 250 kts 287°
2026-05-07 07:27 38.23828 114.93607 3665 ft 249 kts 287°
2026-05-07 07:27 38.23978 114.91419 3295 ft 250 kts 263°
2026-05-07 07:28 38.23237 114.89442 3011 ft 250 kts 231°
2026-05-07 07:28 38.21849 114.88106 2888 ft 248 kts 206°
2026-05-07 07:28 38.20256 114.87550 2765 ft 226 kts 192°
2026-05-07 07:28 38.18776 114.87165 2656 ft 212 kts 193°
2026-05-07 07:29 38.17387 114.86799 2555 ft 199 kts 196°
2026-05-07 07:29 38.16224 114.85908 2496 ft 194 kts 238°
2026-05-07 07:29 38.15578 114.84414 2441 ft 194 kts 249°
2026-05-07 07:29 38.14979 114.82952 2405 ft 180 kts 255°
2026-05-07 07:30 38.14848 114.81465 2260 ft 159 kts 285°
2026-05-07 07:30 38.15072 114.80049 2288 ft 168 kts 294°
2026-05-07 07:30 38.15823 114.79009 2233 ft 162 kts 333°
2026-05-07 07:30 38.16849 114.78393 2163 ft 166 kts 334°
2026-05-07 07:31 38.17858 114.77699 2102 ft 161 kts 332°
2026-05-07 07:31 38.18790 114.77006 2050 ft 150 kts 333°
2026-05-07 07:31 38.19720 114.76397 1905 ft 151 kts 332°
2026-05-07 07:31 38.20654 114.75724 1686 ft 155 kts 330°
2026-05-07 07:32 38.21524 114.74980 1487 ft 147 kts 324°
2026-05-07 07:32 38.22083 114.74558 1352 ft 142 kts 334°
2026-05-07 07:32 38.22932 114.73895 1164 ft 150 kts 324°
2026-05-07 07:32 38.23818 114.73173 952 ft 154 kts 329°
2026-05-07 07:33 38.24703 114.72456 771 ft 146 kts 327°
2026-05-07 07:33 38.24938 114.72260 700 ft 148 kts 326°
2026-05-07 07:33 38.25761 114.71600 519 ft 151 kts 327°
2026-05-07 07:33 38.26588 114.70920 310 ft 133 kts 326°
2026-05-07 07:34 38.27306 114.70340 228 ft 110 kts 326°
2026-05-07 07:34 38.27824 114.69927 237 ft 68 kts 326°
2026-05-07 07:34 38.28179 114.69645 235 ft 46 kts 324°
2026-05-07 07:34 38.28406 114.69403 237 ft 40 kts 302°
2026-05-07 07:35 38.28468 114.69173 235 ft 17 kts 271°
2026-05-07 07:35 38.28389 114.69103 239 ft 17 kts 161°
2026-05-07 07:35 38.28283 114.69172 237 ft 17 kts 151°
2026-05-07 07:35 38.28157 114.69248 234 ft 20 kts 171°
2026-05-07 07:36 38.28065 114.69201 236 ft 0 kts 236°